Lima, OH

6:11 PM EST on December 14, 2017 (GMT -0500)
Lima Allen County

Weather History for KAOH - February, 2013

Change the Weather History Date:

Friday, February 15, 2013

  Actual Average (KFDY) Record (KFDY)
Temperature  
Mean Temperature 30 °F -  
Max Temperature 35 °F 34 °F 70 °F (1954)
Min Temperature 21 °F 21 °F -2 °F (2007)
Degree Days  
Heating Degree Days 36    
Moisture  
Dew Point 23 °F    
Average Humidity 76    
Maximum Humidity 86    
Minimum Humidity 64    
Precipitation  
Precipitation 0.00 in - - ()
Sea Level Pressure  
Sea Level Pressure 30.05 in    
Wind  
Wind Speed 10 mph (NW)    
Max Wind Speed 16 mph    
Max Gust Speed -    
Visibility 7 miles    
Events Snow    
Averages and records for this station are not official NWS values.
T = Trace of Precipitation, MM = Missing Value Source: NWS Daily Summary

Daily Weather History Graph

Daily Weather History Graph

Search for Another Location

Airport or City:

Trip Planner

Search our weather history database for the weather conditions in past years. The results will help you decide how hot, cold, wet, or windy it might be!

Date:

Astronomy

Feb. 15, 2013 Rise Set
Actual Time 7:29 AM EST 6:11 PM EST
Civil Twilight 7:01 AM EST 6:39 PM EST
Nautical Twilight 6:29 AM EST 7:11 PM EST
Astronomical Twilight 5:57 AM EST 7:43 PM EST
Moon 10:03 AM EST (2/15) No Moon Set
Length of Visible Light 11h 37m
Length of Day
10h 41m
Waxing Crescent, 30% of the Moon is Illuminated
Feb 15
Waxing Crescent
Feb 17
First Quarter
Feb 25
Full
Mar 4
Last Quarter
Mar 11
New

Hourly Weather History & Observations

Time (EST) Temp. Windchill Dew Point Humidity Pressure Visibility Wind Dir Wind Speed Gust Speed Precip Events Conditions
12:20 AM 35.6 °F 28.0 °F 28.4 °F 75% 29.92 in 10.0 mi WSW 10.4 mph - N/A   Overcast
12:53 AM 35.1 °F 25.5 °F 27.0 °F 72% 29.95 in 10.0 mi West 15.0 mph - N/A   Mostly Cloudy
1:26 AM 33.8 °F 23.5 °F 24.8 °F 70% 29.93 in 10.0 mi West 16.1 mph - N/A   Scattered Clouds
1:53 AM 34.0 °F 24.6 °F 23.0 °F 64% 29.95 in 10.0 mi WNW 13.8 mph - N/A   Partly Cloudy
2:53 AM 30.9 °F 22.8 °F 23.0 °F 72% 29.97 in 10.0 mi West 9.2 mph - N/A   Clear
3:53 AM 30.0 °F 24.1 °F 24.1 °F 79% 29.98 in 10.0 mi West 5.8 mph - N/A   Clear
4:53 AM 30.0 °F 23.2 °F 21.9 °F 72% 29.98 in 10.0 mi West 6.9 mph - N/A   Clear
5:53 AM 30.0 °F 24.1 °F 23.0 °F 75% 30.01 in 10.0 mi WSW 5.8 mph - N/A   Clear
7:53 AM 28.9 °F 22.8 °F 24.1 °F 82% 30.04 in 10.0 mi WSW 5.8 mph - N/A   Mostly Cloudy
8:53 AM 32.0 °F 26.4 °F 25.0 °F 75% 30.06 in 10.0 mi WSW 5.8 mph - N/A   Overcast
9:53 AM 32.0 °F 25.6 °F 24.1 °F 73% 30.06 in 10.0 mi WNW 6.9 mph - N/A   Overcast
10:53 AM 33.1 °F 26.1 °F 25.0 °F 72% 30.07 in 10.0 mi West 8.1 mph - N/A   Overcast
11:53 AM 33.1 °F 26.9 °F 24.1 °F 70% 30.07 in 10.0 mi WNW 6.9 mph - N/A   Overcast
12:50 PM 32.0 °F 25.6 °F 26.6 °F 80% 30.03 in 3.0 mi NNW 6.9 mph - 0.00 in Snow Light Snow
12:53 PM 32.0 °F 25.6 °F 26.1 °F 79% 30.06 in 3.0 mi NNW 6.9 mph - 0.00 in Snow Light Snow
1:15 PM 30.2 °F 21.9 °F 26.6 °F 86% 30.03 in 2.5 mi NNW 9.2 mph - 0.00 in Snow Light Snow
1:32 PM 30.2 °F 20.8 °F 26.6 °F 86% 30.04 in 1.8 mi North 11.5 mph - 0.00 in Snow Light Snow
1:53 PM 30.0 °F 21.1 °F 25.0 °F 82% 30.06 in 2.0 mi NNW 10.4 mph - 0.00 in Snow Light Snow
2:07 PM 30.2 °F 21.9 °F 24.8 °F 80% 30.04 in 2.0 mi NNW 9.2 mph - 0.00 in Snow Light Snow
2:33 PM 30.2 °F 21.9 °F 24.8 °F 80% 30.04 in 2.5 mi NNW 9.2 mph - 0.00 in Snow Light Snow
2:53 PM 30.0 °F 21.7 °F 25.0 °F 82% 30.07 in 2.5 mi NNW 9.2 mph - 0.00 in Snow Light Snow
3:00 PM 30.2 °F 21.3 °F 24.8 °F 80% 30.04 in 2.0 mi NNW 10.4 mph - 0.00 in Snow Light Snow
3:09 PM 30.2 °F 20.2 °F 24.8 °F 80% 30.05 in 1.5 mi NNW 12.7 mph - 0.00 in Snow Light Snow
3:23 PM 28.4 °F 19.1 °F 24.8 °F 86% 30.05 in 0.8 mi NNW 10.4 mph - 0.00 in Snow Light Snow
3:30 PM 28.4 °F 20.4 °F 24.8 °F 86% 30.05 in 1.2 mi NNW 8.1 mph - 0.00 in Snow Light Snow
3:42 PM 28.4 °F 19.7 °F 24.8 °F 86% 30.06 in 2.0 mi NW 9.2 mph - 0.00 in Snow Light Snow
3:53 PM 28.9 °F 21.9 °F 25.0 °F 85% 30.09 in 2.5 mi NW 6.9 mph - 0.00 in Snow Light Snow
4:00 PM 28.4 °F 22.2 °F 24.8 °F 86% 30.06 in 5.0 mi NNW 5.8 mph - 0.00 in Snow Light Snow
4:53 PM 30.9 °F 21.7 °F 21.0 °F 67% 30.10 in 10.0 mi NNW 11.5 mph - 0.00 in   Overcast
5:53 PM 30.0 °F 20.5 °F 19.0 °F 64% 30.11 in 10.0 mi NW 11.5 mph - N/A   Overcast
6:53 PM 30.0 °F 20.0 °F 21.0 °F 69% 30.12 in 10.0 mi WNW 12.7 mph - N/A   Overcast
7:53 PM 28.9 °F 19.8 °F 18.0 °F 64% 30.14 in 10.0 mi NW 10.4 mph - 0.00 in   Overcast
8:53 PM 27.0 °F 17.3 °F 17.1 °F 66% 30.14 in 10.0 mi WNW 10.4 mph - N/A   Scattered Clouds
9:53 PM 25.0 °F 14.8 °F 16.0 °F 69% 30.15 in 10.0 mi NW 10.4 mph - N/A   Clear
10:53 PM 24.1 °F 14.4 °F 16.0 °F 71% 30.15 in 10.0 mi NW 9.2 mph - N/A   Clear
11:53 PM 21.9 °F 17.2 °F 15.1 °F 75% 30.14 in 10.0 mi NW 3.5 mph - N/A   Clear